Kosmos-872

operational
NORAD ID: 9589 Int'l Des: 1976-118 Owner: GUKOSR Country: SU
LEOCIRCULAR

About Kosmos-872

Description loading...

Live Position

Loading 3D Globe...

Upcoming Passes

Altitude History

Altitude vs Time

uPlot chart will show altitude changes over time

Two-Line Element Set

1 9589U 76118B 26102.59134471 -.00000018 00000-0 -70961-5 0 9998
2 9589 74.0316 53.2518 0042123 309.8633 163.5655 12.58109602266258
Epoch: Apr 12, 2026 • Age: 15 hours

Current Status

Altitude 1409.7 km
Velocity 7.17 km/s
Sub-Earth Point -24.21°S, 132.84°E
Type other

Large Constellations

Loading constellations...